Weather History for KVTN - May, 2014

Change the Weather History Date:

Thursday, May 15, 2014

  Actual Average Record
Temperature  
Mean Temperature 43 °F 57 °F  
Max Temperature 58 °F 71 °F 95 °F (1894)
Min Temperature 28 °F 44 °F 25 °F (1907)
Degree Days  
Heating Degree Days 22 9  
Month to date heating degree days 225 161  
Since 1 July heating degree days 7198 6844  
Cooling Degree Days 0 1  
Month to date cooling degree days 0 12  
Year to date cooling degree days 0 16  
Moisture  
Dew Point 25 °F    
Average Humidity 55    
Maximum Humidity 85    
Minimum Humidity 24    
Precipitation  
Precipitation 0.00 in 0.10 in 1.25 in (1925)
Month to date precipitation 1.65 1.43  
Year to date precipitation 5.85 5.46  
Snow  
Snow 0.00 in 0.00 in T in (1916)
Month to date snowfall 1.0 0.1  
Since 1 July snowfall 35.8 33.3  
Snow Depth 0.00 in    
Sea Level Pressure  
Sea Level Pressure 30.23 in    
Wind  
Wind Speed 8 mph (NNW)    
Max Wind Speed 22 mph    
Max Gust Speed 31 mph    
Visibility 10 miles    
Events      
T = Trace of Precipitation, MM = Missing Value Source: NWS Daily Summary

Daily Weather History Graph

Daily Weather History Graph

Search for Another Location

Airport or City:

Trip Planner

Search our weather history database for the weather conditions in past years. The results will help you decide how hot, cold, wet, or windy it might be!

Date:

Astronomy

May. 15, 2014 Rise Set
Actual Time 6:19 AM CDT 8:58 PM CDT
Civil Twilight 5:46 AM CDT 9:31 PM CDT
Nautical Twilight 5:06 AM CDT 10:12 PM CDT
Astronomical Twilight 4:19 AM CDT 10:58 PM CDT
Moon 10:08 PM CDT (5/15) 7:08 AM CDT (5/15)
Length of Visible Light 15h 44m
Length of Day
14h 39m
Full, 99% of the Moon is Illuminated
May 15
Full
May 21
Last Quarter
May 28
New
Jun 5
First Quarter
Jun 12
Full

Hourly Weather History & Observations

Time (CDT) Temp. Windchill Dew Point Humidity Pressure Visibility Wind Dir Wind Speed Gust Speed Precip Events Conditions
12:52 AM 33.1 °F 28.7 °F 27.0 °F 78% 30.30 in 10.0 mi WNW 4.6 mph - N/A   Clear
1:52 AM 30.9 °F 26.2 °F 26.1 °F 82% 30.30 in 10.0 mi West 4.6 mph - N/A   Clear
2:52 AM 30.9 °F 27.5 °F 26.1 °F 82% 30.29 in 10.0 mi West 3.5 mph - N/A   Clear
4:52 AM 28.9 °F 22.8 °F 25.0 °F 85% 30.28 in 10.0 mi West 5.8 mph - N/A   Clear
6:52 AM 28.9 °F 23.9 °F 25.0 °F 85% 30.27 in 10.0 mi WSW 4.6 mph - N/A   Clear
7:52 AM 35.1 °F 32.2 °F 28.0 °F 76% 30.28 in 10.0 mi NNW 3.5 mph - N/A   Clear
8:52 AM 43.0 °F 39.5 °F 30.9 °F 62% 30.27 in 10.0 mi WNW 5.8 mph - N/A   Clear
9:52 AM 48.2 °F - 26.6 °F 43% 30.23 in 10.0 mi NNE 8.1 mph - N/A   Clear
10:52 AM 52.0 °F - 24.1 °F 34% 30.26 in 10.0 mi NNE 13.8 mph - N/A   Clear
11:52 AM 53.1 °F - 21.9 °F 30% 30.27 in 10.0 mi NNE 16.1 mph 21.9 mph N/A   Clear
12:52 PM 55.4 °F - 24.8 °F 31% 30.22 in 10.0 mi NNW 15.0 mph - N/A   Clear
2:52 PM 55.9 °F - 25.0 °F 30% 30.24 in 10.0 mi NNW 17.3 mph 26.5 mph N/A   Clear
3:44 PM 55.9 °F - 24.1 °F 29% 30.18 in 10.0 mi NNW 10.4 mph 19.6 mph N/A   Clear
3:52 PM 57.9 °F - 24.1 °F 27% 30.22 in 10.0 mi NNW 15.0 mph 18.4 mph N/A   Clear
4:52 PM 57.0 °F - 25.0 °F 29% 30.21 in 10.0 mi NNW 9.2 mph - N/A   Clear
5:52 PM 57.9 °F - 24.1 °F 27% 30.20 in 10.0 mi North 9.2 mph - N/A   Clear
6:52 PM 57.0 °F - 21.9 °F 26% 30.19 in 10.0 mi NNE 10.4 mph - N/A   Clear
7:52 PM 55.0 °F - 23.0 °F 29% 30.18 in 10.0 mi North 8.1 mph - N/A   Clear
8:52 PM 48.0 °F - 27.0 °F 44% 30.17 in 10.0 mi ENE 8.1 mph - N/A   Clear
9:52 PM 45.0 °F 41.2 °F 26.1 °F 48% 30.16 in 10.0 mi East 6.9 mph - N/A   Clear
10:52 PM 42.1 °F 38.4 °F 26.1 °F 53% 30.16 in 10.0 mi East 5.8 mph - N/A   Clear
11:52 PM 39.0 °F - 28.0 °F 65% 30.16 in 10.0 mi Calm Calm - N/A   Clear